Flight Track Log - Related Links

Times and Time Zones

All times are in EDT time to prevent confusion due to time zone crossing. See the SKW4740 flight status page for this flight to view local times or setup timezone preferences in your user account.

Time Position Orientation Groundspeed Altitude Reporting Facility
EDT Latitude Longitude Course Direction KTS MPH feet Rate Location/Type
12:44PM 33.9500 -118.5000 338° Northwest 199 229 3,000  Level Southern California TRACON
12:45PM 33.9333 -118.5833 256° West 243 280 5,400 2,789 Climbing Southern California TRACON
12:46PM 33.9333 -118.6500 270° West 259 298 8,300 2,483 Climbing Southern California TRACON
12:46PM 33.9686 -118.6733 331° Northwest 232 267 9,000 511 Climbing Los Angeles Center
12:47PM 34.3478 -118.5045 349° North  Level Estimated
12:48PM 34.4491 -118.5287 338° Northwest  Level Estimated
12:48PM 34.0289 -118.7125 332° Northwest 245 282 9,100  Level Los Angeles Center
12:49PM 34.5504 -118.5530 338° Northwest  Level Estimated
12:49PM 34.0936 -118.6675 30° Northeast 269 310 9,100  Level Los Angeles Center
12:50PM 34.1647 -118.6536 North 256 295 10,500 1,887 Climbing Los Angeles Center
12:51PM 34.2356 -118.6678 351° North 257 296 13,000 2,371 Climbing Los Angeles Center
12:52PM 34.3161 -118.6839 351° North 292 336 15,400 2,341 Climbing Los Angeles Center
12:53PM 34.3994 -118.6992 351° North 300 345 17,800 2,293 Climbing Los Angeles Center
12:54PM 34.4861 -118.7164 351° North 313 360 20,100 2,129 Climbing Los Angeles Center
12:55PM 34.5700 -118.7456 344° North 315 362 22,200 2,323 Climbing Los Angeles Center
12:56PM 34.6664 -118.7947 337° Northwest 315 362 24,900 2,323 Climbing Los Angeles Center
12:57PM 34.7475 -118.8356 338° Northwest 315 362 27,000 1,561 Climbing Los Angeles Center
12:58PM 34.8358 -118.8603 347° North 321 369 28,100 1,463 Climbing Los Angeles Center
12:59PM 34.9333 -118.8903 346° North 325 374 30,000 1,597 Climbing Los Angeles Center
01:00PM 35.0206 -118.9150 347° North 324 373 31,400 1,113 Climbing Los Angeles Center
01:01PM 35.1089 -118.9400 347° North 324 373 32,300 1,065 Climbing Los Angeles Center
01:02PM 35.1983 -118.9661 347° North 331 381 33,600 1,073 Climbing Los Angeles Center
01:03PM 35.2867 -118.9917 347° North 331 381 34,500 780 Climbing Los Angeles Center
01:04PM 35.3747 -119.0181 346° North 328 377 35,200 726 Climbing Los Angeles Center
01:05PM 35.4836 -119.0506 346° North 332 382 36,000 387 Climbing Los Angeles Center
01:06PM 35.5775 -119.0786 346° North 340 391 36,000  Level Los Angeles Center
01:07PM 35.6706 -119.1069 346° North 344 396 36,000  Level Los Angeles Center
01:08PM 35.7600 -119.1328 347° North 335 386 36,000  Level Los Angeles Center
01:09PM 35.8475 -119.1589 346° North 329 379 36,000  Level Los Angeles Center
01:10PM 35.8997 -119.1725 348° North 329 379 36,000  Level Oakland Center
01:11PM 35.9889 -119.2000 346° North 329 379 36,000  Level Oakland Center
01:12PM 36.0786 -119.2275 346° North 331 381 36,000  Level Oakland Center
01:13PM 36.1883 -119.2600 347° North 335 386 36,000  Level Oakland Center
01:14PM 36.2811 -119.2875 347° North 340 391 36,000  Level Oakland Center
01:15PM 36.3744 -119.3161 346° North 342 394 36,000  Level Oakland Center
01:16PM 36.4672 -119.3444 346° North 345 397 36,000  Level Oakland Center
01:17PM 36.5611 -119.3733 346° North 345 397 36,000  Level Oakland Center
01:18PM 36.6539 -119.4019 346° North 345 397 36,000  Level Oakland Center
01:19PM 36.7469 -119.4297 347° North 345 397 36,000  Level Oakland Center
01:20PM 36.8394 -119.4589 346° North 345 397 36,000  Level Oakland Center
01:21PM 36.9322 -119.4875 346° North 345 397 36,000  Level Oakland Center
01:22PM 37.0239 -119.5147 347° North 341 392 36,000  Level Oakland Center
01:23PM 37.1347 -119.5506 346° North 342 394 36,000  Level Oakland Center
01:24PM 37.2269 -119.5781 347° North 342 394 36,000  Level Oakland Center
01:25PM 37.3200 -119.6075 346° North 343 395 36,000  Level Oakland Center
01:26PM 37.4172 -119.6383 346° North 342 394 36,000  Level Oakland Center
01:27PM 37.5108 -119.6669 346° North 342 394 36,000  Level Oakland Center
01:28PM 37.6028 -119.6961 346° North 342 394 36,000  Level Oakland Center
01:29PM 37.6967 -119.7256 346° North 345 397 36,000  Level Oakland Center
01:30PM 37.7889 -119.7539 346° North 344 396 36,000  Level Oakland Center
01:31PM 37.8828 -119.7825 346° North 344 396 36,000  Level Oakland Center
01:32PM 37.9761 -119.8122 346° North 347 399 36,000  Level Oakland Center
01:33PM 38.0708 -119.8419 346° North 347 399 36,000  Level Oakland Center
01:34PM 38.1642 -119.8725 346° North 347 399 36,000  Level Oakland Center
01:35PM 38.2572 -119.9019 346° North 348 400 36,000  Level Oakland Center
01:36PM 38.3706 -119.9389 346° North 348 400 36,000  Level Oakland Center
01:37PM 38.4644 -119.9681 346° North 349 402 36,000 -590 Level Oakland Center
01:38PM 38.5561 -119.9986 345° North 347 399 34,800 -984 Descending Oakland Center
01:39PM 38.6461 -120.0267 346° North 341 392 34,000 -390 Descending Oakland Center
01:40PM 38.7333 -120.0539 346° North 333 383 34,000  Level Oakland Center
01:41PM 38.8189 -120.0817 346° North 324 373 34,000  Level Oakland Center
01:42PM 38.9031 -120.1100 345° North 319 367 34,000  Level Oakland Center
01:43PM 38.9872 -120.1369 346° North 316 364 34,000  Level Oakland Center
01:44PM 39.0714 -120.1636 346° North 312 359 34,000  Level Oakland Center
01:45PM 39.1731 -120.1981 345° North 314 361 34,000  Level Oakland Center
01:46PM 39.2578 -120.2242 347° North 314 361 34,000  Level Oakland Center
01:47PM 39.3431 -120.2531 345° North 315 362 34,000  Level Oakland Center
01:49PM 39.4286 -120.2819 345° North 316 364 34,000  Level Oakland Center
01:50PM 39.5144 -120.3097 346° North 316 364 34,000  Level Oakland Center
01:51PM 39.5997 -120.3372 346° North 316 364 34,000  Level Oakland Center
01:52PM 39.6850 -120.3658 346° North 316 364 34,000  Level Oakland Center
01:53PM 39.7708 -120.3939 346° North 317 365 34,000  Level Oakland Center
01:54PM 39.8561 -120.4222 346° North 319 367 34,000  Level Oakland Center
01:55PM 39.9597 -120.4578 345° North 319 367 34,000  Level Oakland Center
01:56PM 40.0444 -120.4853 346° North 319 367 34,000  Level Oakland Center
01:57PM 40.1297 -120.5144 345° North 320 368 34,000  Level Oakland Center
01:58PM 40.2156 -120.5433 346° North 320 368 34,000  Level Oakland Center
01:59PM 40.3192 -120.5778 346° North 319 367 34,000  Level Seattle Center
02:00PM 40.3939 -120.6019 346° North 319 367 34,000  Level Seattle Center
02:01PM 40.4728 -120.6294 345° North 320 368 34,000  Level Oakland Center
02:02PM 40.5622 -120.6600 345° North 320 368 34,000  Level Oakland Center
02:03PM 40.6483 -120.6903 345° North 322 371 34,000  Level Oakland Center
02:04PM 40.7342 -120.7181 346° North 318 366 34,000  Level Oakland Center
02:05PM 40.8361 -120.7531 345° North 318 366 34,000  Level Oakland Center
02:06PM 40.9206 -120.7825 345° North 317 365 34,000  Level Oakland Center
02:07PM 41.0075 -120.8158 344° North 316 364 34,000  Level Seattle Center
02:08PM 41.0931 -120.8447 346° North 316 364 34,000  Level Seattle Center
02:09PM 41.1772 -120.8739 345° North 316 364 34,000  Level Seattle Center
02:10PM 41.2628 -120.9033 345° North 316 364 34,000  Level Seattle Center
02:11PM 41.3458 -120.9317 346° North 315 362 34,000  Level Seattle Center
02:12PM 41.4303 -120.9614 345° North 314 361 34,000  Level Seattle Center
02:13PM 41.5322 -120.9986 345° North 315 362 34,000  Level Seattle Center
02:14PM 41.6172 -121.0292 345° North 316 364 34,000  Level Seattle Center
02:15PM 41.7033 -121.0589 346° North 321 369 34,000  Level Seattle Center
02:16PM 41.7892 -121.0894 345° North 321 369 34,000  Level Seattle Center
02:17PM 41.8747 -121.1194 345° North 320 368 34,000  Level Seattle Center
02:18PM 41.9622 -121.1522 344° North 330 380 34,000  Level Seattle Center
02:19PM 42.0494 -121.1828 345° North 328 377 34,000  Level Seattle Center
02:20PM 42.1367 -121.2144 345° North 325 374 34,000  Level Seattle Center
02:21PM 42.2236 -121.2439 346° North 325 374 34,000  Level Seattle Center
02:22PM 42.3283 -121.2822 345° North 326 375 34,000  Level Seattle Center
02:23PM 42.4172 -121.3142 345° North 329 379 34,000  Level Seattle Center
02:24PM 42.5058 -121.3472 345° North 331 381 34,000  Level Seattle Center
02:25PM 42.5947 -121.3794 345° North 333 383 34,000  Level Seattle Center
02:26PM 42.6833 -121.4119 345° North 332 382 34,000  Level Seattle Center
02:27PM 42.7708 -121.4444 345° North 331 381 34,000  Level Seattle Center
02:28PM 42.8586 -121.4764 345° North 330 380 34,000  Level Seattle Center
02:29PM 42.9464 -121.5081 345° North 330 380 34,000  Level Seattle Center
02:30PM 43.0358 -121.5428 344° North 334 384 34,000  Level Seattle Center
02:31PM 43.1256 -121.5772 344° North 336 387 34,000  Level Seattle Center
02:32PM 43.2350 -121.6175 345° North 338 389 34,000  Level Seattle Center
02:33PM 43.3272 -121.6517 345° North 342 394 34,000 -639 Level Seattle Center
02:34PM 43.4194 -121.6853 345° North 345 397 32,700 -976 Descending Seattle Center
02:35PM 43.5089 -121.7192 345° North 340 391 32,000 -341 Descending Seattle Center
02:36PM 43.6022 -121.7550 344° North 345 397 32,000  Level Seattle Center
02:37PM 43.6964 -121.7903 345° North 351 404 32,000  Level Seattle Center
02:39PM 43.7922 -121.8242 346° North 354 407 32,000  Level Seattle Center
02:40PM 43.9006 -121.8644 345° North 366 421 32,000  Level Seattle Center
02:41PM 43.9931 -121.8983 345° North 361 415 32,000  Level Seattle Center
02:42PM 44.0903 -121.9347 345° North 361 415 32,000  Level Seattle Center
02:43PM 44.1856 -121.9722 344° North 359 413 32,000  Level Seattle Center
02:44PM 44.2808 -122.0089 345° North 358 412 32,000  Level Seattle Center
02:45PM 44.3747 -122.0456 344° North 356 410 32,000  Level Seattle Center
02:46PM 44.4911 -122.0917 344° North 362 417 32,000  Level Seattle Center
02:47PM 44.5906 -122.1308 344° North 369 425 32,000  Level Seattle Center
02:48PM 44.6786 -122.1658 344° North 369 425 32,000  Level Seattle Center
02:49PM 44.7792 -122.2050 345° North 370 426 32,000  Level Seattle Center
02:50PM 44.8811 -122.2456 344° North 374 430 32,000  Level Seattle Center
02:51PM 44.9806 -122.2847 344° North 373 429 32,000  Level Seattle Center
02:52PM 45.0828 -122.3250 344° North 382 440 32,000  Level Seattle Center
02:53PM 45.2036 -122.3719 345° North 380 437 32,000  Level Seattle Center
02:54PM 45.3047 -122.4128 344° North 380 437 32,000  Level Seattle Center
02:55PM 45.4067 -122.4542 344° North 381 438 32,000  Level Seattle Center
02:56PM 45.5075 -122.4939 345° North 380 437 32,000 -738 Level Seattle Center
02:57PM 45.6094 -122.5347 344° North 381 438 30,500 -1,525 Descending Seattle Center
02:58PM 45.7111 -122.5794 343° North 384 442 28,900 -1,525 Descending Seattle Center
02:59PM 45.8100 -122.6097 348° North 375 432 27,400 -1,426 Descending Seattle Center
03:00PM 45.9111 -122.6319 351° North 370 426 26,000 -1,475 Descending Seattle Center
03:01PM 46.0133 -122.6550 351° North 371 427 24,400 -1,525 Descending Seattle Center
03:02PM 46.1169 -122.6811 350° North 377 434 22,900 -1,525 Descending Seattle Center
03:03PM 46.2350 -122.7028 353° North 377 434 21,300 -1,475 Descending Seattle Center
03:04PM 46.3339 -122.7233 352° North 365 420 19,900 -1,279 Descending Seattle Center
03:05PM 46.4336 -122.7264 359° North 361 415 18,700 -1,180 Descending Seattle Center
03:06PM 46.5342 -122.7289 359° North 362 417 17,500 -1,131 Descending Seattle Center
03:07PM 46.6303 -122.7339 358° North 344 396 16,400 -1,213 Descending Seattle Center
03:07PM 46.6878 -122.7356 359° North 349 402 15,700 -1,180 Descending Seattle Center
03:08PM 46.7394 -122.7369 359° North 346 398 15,200 -982 Descending Seattle Center
03:08PM 46.7750 -122.7375 359° North 341 392 14,800 -984 Descending Seattle Center
03:09PM 46.8239 -122.6908 33° Northeast 337 388 14,200 -984 Descending Seattle Center
03:09PM 46.8531 -122.6600 36° Northeast 336 387 13,800 -984 Descending Seattle Center
03:10PM 46.9031 -122.6003 39° Northeast 333 383 13,200 -822 Descending Seattle Center
03:11PM 46.9456 -122.5614 32° Northeast 335 386 12,800 -689 Descending Seattle Center
03:11PM 46.9856 -122.5408 19° North 333 383 12,500 -764 Descending Seattle Center
03:12PM 47.0253 -122.5247 15° North 322 371 12,100 -774 Descending Seattle Center
03:12PM 47.0700 -122.5050 17° North 320 368 11,700 -787 Descending Seattle Center
03:13PM 47.1089 -122.4956 North 314 361 11,300 -787 Descending Seattle Center
03:13PM 47.1564 -122.4861 North 317 365 10,900 -787 Descending Seattle Center
03:14PM 47.1961 -122.4806 North 307 353 10,500 -787 Descending Seattle Center
03:14PM 47.2397 -122.4725 North 302 348 10,100 -900 Descending Seattle Center
03:15PM 47.2775 -122.4689 North 296 341 9,600 -984 Descending Seattle Center
03:15PM 47.3192 -122.4606 North 289 333 9,100 -982 Descending Seattle Center
03:15PM 47.3478 -122.4567 North 280 322 8,700 -1,377 Descending Seattle Center
03:16PM 47.3997 -122.4547 North 261 300 7,700 -1,433 Descending Seattle Center
03:17PM 47.4275 -122.4556 359° North 256 295 7,100 -1,377 Descending Seattle Center
03:17PM 47.4719 -122.4553 360° North 260 299 6,300 -1,377 Descending Seattle Center
03:18PM 47.4994 -122.4586 355° North 255 293 5,700 -1,082 Descending Seattle Center
03:18PM 47.5417 -122.4553 North 253 291 5,200 -984 Descending Seattle Center
03:19PM 47.5658 -122.4581 356° North 232 267 4,700 -1,279 Descending Seattle Center
03:19PM 47.5956 -122.4275 35° Northeast 230 265 3,900 -1,377 Descending Seattle Center
03:20PM 47.6019 -122.3892 76° East 202 232 3,300 -1,279 Descending Seattle Center
03:20PM 47.6033 -122.3467 87° East 196 226 2,600 -1,180 Descending Seattle Center
03:21PM 47.5858 -122.3258 141° Southeast 172 198 2,100 -500 Descending Seattle Center
03:21PM 47.5608 -122.3169 167° South 174 200 2,100 -98 Level Seattle Center
03:22PM 47.5414 -122.3172 181° South 154 177 2,000 -492 Descending Seattle Center
03:22PM 47.5186 -122.3181 181° South 158 182 1,600 -778 Descending Seattle Center
03:23PM 47.5058 -122.3172 177° South 133 153 1,300 -689 Descending Seattle Center
03:23PM 47.4814 -122.3175 180° South 129 148 900 -689 Descending Seattle Center
03:24PM 47.4711 -122.3200 189° South 121 139 600 -492 Descending Seattle Center
03:24PM 47.4472 -122.3189 178° South 129 148 400 -293 Descending Seattle Center

Login

Don't have an account? Register now (free) for customized features, flight alerts, and more!